Погода в Саратане

Россия / Республика Алтай     50°31′16″N   88°15′47″E
темп.,
°C
ветер,
м/с
пор.,
м/с
влажн.,
%
обл.,
%
осадки,
мм/ч
давл.,
гПа
погр.,
м
18 января, вт
вт1801:00−9ю1188100 0.1 102210
04:00−11ююз1187100 0.0 10259
07:00−10ююв1188100 0.1 102523
10:00−8ююв1192100 0.4 102566
13:00−5с0093100 1.4 1022223
16:00−4ссв019075 0.1 1021174
19:00−13ю229473 0.2 102812
22:00−12ю2292100 0.1 102827
19 января, ср
ср1901:00−13ю2292100 0.1 102818
04:00−16ю229262 0.0 102914
07:00−18ю229439 0.0 103014
10:00−17ю229250 0.0 102921
13:00−9ссз108034 0.0 1021265
16:00−8ссз1188100 0.0 1019172
19:00−15ю1196100 0.0 102510
22:00−16ю2292100 0.0 102612
20 января, чт
чт2001:00−18ююв229257 0.0 102811
04:00
07:00−19ю2294100 0.2 103022
10:00−14всв0194100 0.2 102761
13:00
16:00−10ссз1189100 0.3 1025283
19:00−17ю1110089 0.3 103210
22:00−19ю2298100 0.0 103511
21 января, пт
пт2101:00−20ююв229898 0.1 103613
04:00−22ююв229779 0.0 103712
07:00−23ю229765 0.0 103813
10:00−20ююв229595 0.0 103526
13:00−12всв0182100 0.0 1027233
16:00−11с1187100 0.0 1025198
19:00−19ю2296100 0.0 103111
22:00−21ю229399 0.0 103314
22 января, сб
сб2201:00−23ю229354 0.0 103614
04:00−24ю229350 0.0 103613
07:00−23ююв229391 0.0 103712
10:00−21ю219172 0.0 103624
13:00−13ссз108139 0.0 1029267
16:00−12ссз118648 0.0 1028231
19:00−22ю229749 0.0 103910
22:00−23ю229569 0.0 104113